Tracking 25711 objects as of 22-May-2022
HD Live streaming from Space Station
objects crossing your sky now

INNOSAT 2

Track INNOSAT 2 now!
10-day predictions


NORAD ID: 43738
Int'l Code: 2018-096V
Perigee: 422.0 km
Apogee: 444.2 km
Inclination: 97.4 °
Period: 93.1 minutes
Semi major axis: 6804 km
RCS: Unknown
Launch date: November 29, 2018
Source: (TBD)
Launch site: SRIHARIKOTA (SRI)
aabbcc
Your satellite tracking list
Your tracking list is empty




NASA's NSSDC Master Catalog

Two Line Element Set (TLE):
1 43738U 18096V   22142.48707745  .00073435  00000-0  14456-2 0  9996
2 43738  97.3658 230.8271 0016284 138.3787 234.1813 15.46844525194499
Source of the keplerian elements: AFSPC